Погода в Ходутке

Погода в Ходутке : погода сейчас, прогноз погоды и архив. Всё, что Вы хотите узнать о погоде в Ходутке!

Поиск расширенной информации на нашем сайте:

Другие новости

Новости СМИ2

Главная страница сайта

Новости сайта

03.07.2017

Напоминаем, что на нашем специализированном сайте Метеоцентр.Азия вы можете получить высокодетализированные автоматические прогнозы погоды по пунктам России, СНГ и мира в авиационном формате (включающие направление и скорость ветра, видимость, явления погоды, количество и форму облачности, нижнюю и верхнюю границу облачности).


Погода в Ходутке - сегодня

Время (UTC), дата Ветер
(°,м/с) 
Видим.   Явления Облачность Т
(°С)
Тd
(°С)
f(%) Тe
(°С)
Pmin
(гПа)
dP
(гПа)
Po
(мм)
O2
(г/м3)
Тmin Tmax R s Состояние
почвы
15 12.01.18 тихо ()   4000 м  слаб. ливневой снег  10/10 200 м кучево-дожд. 
[Cb cap]
-2.3 -2.6 98 -2  1003.4  0.4  751  305           
18 12.01.18 350 (С) 4000 м  слаб. ливневой снег  10/10 200 м кучево-дожд. 
[Cb cap]
-2.2 -2.8 96 -2  1003.5  0.1  751  305           
21 12.01.18 тихо ()   4000 м  слаб. ливневой снег  10/10 200 м кучево-дожд. 
[Cb cap]
-2.4 -3.1 95 -2  1004.1  0.5  751  306  -3.4    0.9  21  неравномерный
сухой снег
100% 
03 13.01.18 350 (С) 20000 м  {снег}  10/0 средняя 
[As trans]
-2 -6 74 -3  1003.5  -0.9  751  305           
06 13.01.18 030 (СВ) 20000 м  {снег}  10/0 средняя 
[As trans]
-3 -8.1 68 -3  1003.4  -0.2  751  307           
15 13.01.18 300 (СЗ) 3{11}  20000 м    ясно 
-4.9 -11.3 61 -7  1003.1  0.1  750  309           
18 13.01.18 330 (СЗ) 5-11{13}  20000 м    ясно 
-5.4 -12 60 -9  1003.1  750  310           
21 13.01.18 340 (С) 5-11{12}  20000 м    1/0 средняя 
[Ac trans]
-6.1 -13.1 58 -10  1003.5  0.4  751  311  -6.1      21  неравномерный
сухой снег
100% 
09 14.01.18 340 (С) 5-11{13}  20000 м  позёмок  8/0 средняя 
[Ac trans]
-7 -15.9 49 -11  1003.4  0.3  751  312    -4.8       
21 14.01.18 350 (С) 4{13}  20000 м  позёмок  8/3 600 м средняя, верхняя 
[Sc|Ac trans|Ci fib]
-8.6 -19.1 42 -12  1005.7  0.8  752  314  -8.8      20  неравномерный
сухой снег
100% 
12 15.01.18 350 (С) 20000 м    4/3 600 м средняя, верхняя 
[Sc|Ac trans|Ci fib]
-11 -14 78 -13  1006.3  -0.3  753  317           
15 15.01.18 тихо ()   20000 м    10/4 600 м средняя, верхняя 
[Sc|Ac trans|Ci fib]
-9 -13.2 72 -9  1005.2  -1  752  314           
18 15.01.18 040 (СВ) 4000 м  слаб. ливневой снег  10/10 200 м кучево-дожд. 
[Cb cap]
-6.7 -7.5 94 -6  1003  -2.2  750  311           
21 15.01.18 340 (С) 20000 м  в посл. час ливневой снег  10/10 600 м 
[Sc]
-8 -8.2 98 -8  1002.3  -0.7  750  312  -12.2    22  неравномерный
сухой снег
100% 
03 16.01.18 280 (З) 20000 м    10/0 верхняя 
[Cs]
-4.4 -9.8 66 -8  1003.6  -0.3  751  308           
06 16.01.18 350 (С) 20000 м    10/0 верхняя 
[Cs]
-5.8 -10.4 70 -5  1004.2  0.6  751  310           
12 16.01.18 350 (С) 20000 м    3/0 верхняя 
[Ci fib]
-9.6 -13.9 71 -13  1004.2  -0.4  751  315           
15 16.01.18 340 (С) 20000 м    ясно 
-8.4 -14.1 63 -13  1003.9  -0.3  751  313           
18 16.01.18 320 (СЗ) 20000 м    ясно 
-8.5 -15.8 56 -10  1003.9  751  314           
09 17.01.18 310 (СЗ) 6-10{13}  20000 м  позёмок  ясно 
-7.8 -15.9 52 -13  1008.4  1.2  754  314    -6       
21 17.01.18 300 (СЗ) 12-20{20}  4000 м  метель  ясно 
-6.9 -15.7 49 -14  1011.6  0.8  757  314  -8.1      24  неравномерный
сухой снег
100% 
09 18.01.18 290 (З) 2{13}  20000 м    3/0 верхняя 
[Ci fib]
-9.1 -16.4 55 -11  1015.2  0.9  759  318    -5.4       
12 18.01.18 350 (С) 20000 м    3/0 верхняя 
[Ci fib]
-8.6 -16.9 51 -13  1015.3  0.1  759  317           
18 18.01.18 330 (СЗ) 3{11}  20000 м    3/0 верхняя 
[Ci fib]
-7.3 -17.9 42 -10  1014.5  -0.4  759  316           
09 19.01.18 050 (СВ) 9-13{16}  20000 м  позёмок  10/3 600 м средняя, верхняя 
[Sc|Ac trans|Cs]
-4.3 -10.1 64 -10  1011.8  -0.5  757  311    -3.9       
Время (UTC), дата Ветер
(°,м/с) 
Видим.   Явления Облачность Т
(°С)
Тd
(°С)
f(%) Тe
(°С)
Pmin
(гПа)
dP
(гПа)
Po
(мм)
O2
(г/м3)
Тmin Tmax R s Состояние
почвы

Для получения пояснительной информации подведите курсор к названию столбца.

ПОГОДА в Ходутке - архив

Всё, что Вы хотите узнать о погоде в Ходутке - удобно и подробно!

Выберите нужную дату (начиная с 1 января 2015* года) и нажмите кнопку "Найти".
Будут отображены архивные сводки погоды по пункту Ходутка, начиная с указанной даты.


Отображать данные в формате CSV (для использования в таблицах Excel)


Внимание! Наш архив погоды предназначен исключительно для личного некоммерческого использования в познавательных целях. Если Вам необходимы официальные справки о состоянии погоды (для производственных, юридических, коммерческих и т.п. целей), обращайтесь в органы Росгидромета.

*Примечание: данная дата относится к архиву по метеостанциям СССР (Россия, СНГ, Балтия).
Архив по метеостанциям Зарубежной Европы и Азии (кроме Китая) хранится 10 дней, по другим регионам земного шара (Китай, Африка, Америка, Австралия, Океания) - 1 день.

Ходутка - район местоположения метеостанции


Название, широта, долгота, высота метеостанции:
Ходутка 51.8°ш. 158°д. 18 м над ур. моря [Российская Федерация]

Дополнительная информация

В oтличие oт бoльшинства пoгoдных сайтoв мы публикуем пoдрoбную метеoинфoрмацию в детальнoм прoфессиoнальнoм фoрмате.

Характеристики температуры и влажнoсти вoздуха измеряются на высoте 2 м в тени вдали oт зданий и деревьев.
Скoрoсть ветра измеряется на высoте 10 м (на урoвне рoста челoвека скoрoсть ветра ниже в 1.5-2 раза). Если метеoстанция нахoдится в гoрoде или в лесу, тo скoрoсть ветра занижена на 2-4 м/с пo сравнению с oткрытым местoм. Скoрoсть ветра над акватoриями крупных рек и oзёр, а также на вершинах хoлмoв на 2-5 м/с выше, чем в oбычных услoвиях.
Атмoсфернoе давление в разных тoчках местнoсти мoжет значительнo oтличаться oт давления на метеoстанции, в зависимoсти oт услoвий рельефа (при пoдъёме на 10 м давление пoнижается примернo на 1 мм рт.ст.).